sat.trackr.live / text

‹ back to catalog

STARLINK-31707

NORAD 59736 · 2024-090G

PAYLOAD ACTIVE UNKNOWN

§ Identity

Operator
Country
US
Launch date
2024-05-13
Launch site
AFETR
Launch vehicle
Mass (kg)
RCS (m²)

Purposes: comms

External: N2YO · Heavens-Above · Gunter

§ Orbital elements

Epoch: 2026-09-21T09:48:45.528192Z

Period
94.27 min
Inclination
43.0004°
Eccentricity
0.0000961
Mean motion
15.27573964 rev/d
Perigee alt
482.4 km
Apogee alt
483.7 km
Semi-major
6,861.2 km
B*
-7.2980e-6
RAAN
158.1096°
Arg perigee
270.8613°
Mean anomaly
89.2128°
Rev number
13,337

§ Raw data

STARLINK-317071 59736U 24090G   26264.40886028 -.00000463  00000+0 -72980-5 0  99962 59736  43.0004 158.1096 0000961 270.8613  89.2128 15.27573964133372

JSON: /api/v1/satellites/59736 · /tle

For live sub-satellite position, see the globe view (requires WebGL).

§ Visibility from observer

Set your observer location to see the next 7 days of passes ≥ 10°. The values pass through the URL so the page stays shareable.

No JS? Fill the form by hand. The geolocation button needs JavaScript.